Voltar ao catálogo

STARLINK-36224

AtivoComunicaçõesVLEO
NORAD 67203·PAYLOAD·🇺🇸 United States

Lançado Dec 17, 2025 de Vandenberg Space Force Base

Loading…

Próximas Passagens (próximas 24 horas)

TLE

AtualizadoSource: CelesTrak SupGP

Época: Sep 15, 2026, 03:47 UTC

1 67203C 25304M   26258.15812500 -.00023293  00000+0 -19528-2 0  2582
2 67203  70.0015  56.7614 0002584 268.8430 122.4379 14.98329414    16

Acompanhe STARLINK-36224 em tempo real com AllMySat

Download on the App Store